• In Denmark
  • List of Countries
  • For 7 days
  • Water Temperature
  • Satellite Maps
  • Weather Map
  • Weather Widgets
  • user-avatar
    Login

    Hourly Weather Basshi

    Today, 16 October, Tuesday

    Time Temperature Precipitation Wind Pressure Humidity
    00:00 +9°C° 0 mm 3 mps 675 mmHg 47%
    01:00 +7°C° 0 mm 4 mps 676 mmHg 49%
    02:00 +7°C° 0 mm 4 mps 676 mmHg 52%
    03:00 +6°C° 0.4 mm 5 mps 677 mmHg 59%
    04:00 +6°C° 0.4 mm 5 mps 677 mmHg 65%
    05:00 +4°C° 0.4 mm 6 mps 677 mmHg 72%
    06:00 +4°C° 0.4 mm 6 mps 678 mmHg 72%
    07:00 +4°C° 0.4 mm 6 mps 678 mmHg 72%
    08:00 +3°C° 0.4 mm 6 mps 679 mmHg 72%
    09:00 +3°C° 0.2 mm 5 mps 679 mmHg 70%
    10:00 +5°C° 0.2 mm 5 mps 679 mmHg 68%
    11:00 +5°C° 0.2 mm 5 mps 679 mmHg 65%
    12:00 +5°C° 0.1 mm 5 mps 679 mmHg 64%
    13:00 +5°C° 0.1 mm 4 mps 679 mmHg 62%
    14:00 +5°C° 0.1 mm 4 mps 678 mmHg 61%
    15:00 +5°C° 0.4 mm 4 mps 679 mmHg 64%
    16:00 +3°C° 0.4 mm 5 mps 679 mmHg 66%
    17:00 +2°C° 0.4 mm 5 mps 679 mmHg 69%
    18:00 +2°C° 0.5 mm 5 mps 680 mmHg 70%
    19:00 +2°C° 0.5 mm 5 mps 680 mmHg 70%
    20:00 +1°C° 0.5 mm 5 mps 680 mmHg 71%
    21:00 +1°C° 0.5 mm 5 mps 681 mmHg 73%
    22:00 0°C° 0.5 mm 5 mps 681 mmHg 75%
    23:00 -1°C° 0.5 mm 6 mps 681 mmHg 76%

    Tomorrow, 17 October, Wednesday

    Time Temperature Precipitation Wind Pressure Humidity
    00:00 -2°C° 0.6 mm 6 mps 681 mmHg 78%
    01:00 -2°C° 0.6 mm 6 mps 682 mmHg 79%
    02:00 -2°C° 0.6 mm 6 mps 682 mmHg 80%
    03:00 -3°C° 0.4 mm 6 mps 682 mmHg 80%
    04:00 -3°C° 0.4 mm 6 mps 683 mmHg 80%
    05:00 -3°C° 0.4 mm 6 mps 684 mmHg 80%
    06:00 -3°C° 0.2 mm 6 mps 684 mmHg 79%
    07:00 -3°C° 0.2 mm 6 mps 685 mmHg 78%
    08:00 -3°C° 0.2 mm 6 mps 686 mmHg 78%
    09:00 -2°C° 0.1 mm 6 mps 686 mmHg 76%
    10:00 -2°C° 0.1 mm 6 mps 686 mmHg 74%
    11:00 -2°C° 0.1 mm 6 mps 687 mmHg 72%
    12:00 -2°C° 0.1 mm 6 mps 686 mmHg 70%
    13:00 -1°C° 0.1 mm 6 mps 686 mmHg 68%
    14:00 0°C° 0.1 mm 5 mps 686 mmHg 66%
    15:00 -1°C° 0 mm 5 mps 686 mmHg 67%
    16:00 -1°C° 0 mm 5 mps 686 mmHg 69%
    17:00 -2°C° 0 mm 5 mps 687 mmHg 70%
    18:00 -2°C° 0 mm 5 mps 687 mmHg 70%
    19:00 -3°C° 0 mm 4 mps 687 mmHg 69%
    20:00 -3°C° 0 mm 4 mps 687 mmHg 69%
    21:00 -4°C° 0 mm 4 mps 687 mmHg 68%
    22:00 -4°C° 0 mm 3 mps 687 mmHg 68%
    23:00 -5°C° 0 mm 3 mps 687 mmHg 68%

    Day after tomorrow, 18 October, Thursday

    Time Temperature Precipitation Wind Pressure Humidity
    00:00 -5°C° 0 mm 3 mps 686 mmHg 66%
    01:00 -5°C° 0 mm 3 mps 686 mmHg 65%
    02:00 -5°C° 0 mm 2 mps 686 mmHg 63%
    03:00 -5°C° 0 mm 2 mps 686 mmHg 61%
    04:00 -5°C° 0 mm 2 mps 686 mmHg 59%
    05:00 -5°C° 0 mm 2 mps 686 mmHg 56%
    06:00 -5°C° 0 mm 3 mps 686 mmHg 55%
    07:00 -4°C° 0 mm 3 mps 686 mmHg 54%
    08:00 -3°C° 0 mm 4 mps 686 mmHg 53%
    09:00 -2°C° 0 mm 4 mps 685 mmHg 52%
    10:00 0°C° 0 mm 5 mps 685 mmHg 52%
    11:00 +1°C° 0 mm 5 mps 684 mmHg 51%
    12:00 +1°C° 0 mm 5 mps 683 mmHg 50%
    13:00 +2°C° 0 mm 5 mps 683 mmHg 49%
    14:00 +2°C° 0 mm 5 mps 682 mmHg 49%
    15:00 +1°C° 0 mm 5 mps 682 mmHg 51%
    16:00 0°C° 0 mm 5 mps 682 mmHg 53%
    17:00 -1°C° 0 mm 5 mps 681 mmHg 56%
    18:00 -1°C° 0 mm 5 mps 681 mmHg 56%
    19:00 -1°C° 0 mm 5 mps 681 mmHg 55%
    20:00 -1°C° 0 mm 5 mps 681 mmHg 55%
    21:00 -2°C° 0 mm 5 mps 681 mmHg 54%
    22:00 -2°C° 0 mm 5 mps 681 mmHg 52%
    23:00 -2°C° 0 mm 4 mps 680 mmHg 51%

    19 October, Friday

    Time Temperature Precipitation Wind Pressure Humidity
    00:00 -2°C° 0 mm 4 mps 680 mmHg 51%
    01:00 -2°C° 0 mm 4 mps 680 mmHg 51%
    02:00 -2°C° 0 mm 4 mps 679 mmHg 51%
    03:00 -1°C° 0 mm 3 mps 680 mmHg 52%
    04:00 -1°C° 0 mm 3 mps 680 mmHg 54%
    05:00 -1°C° 0 mm 3 mps 680 mmHg 55%
    06:00 +1°C° 0.1 mm 2 mps 680 mmHg 55%
    07:00 +1°C° 0.1 mm 2 mps 680 mmHg 56%
    08:00 +2°C° 0.1 mm 2 mps 680 mmHg 56%
    09:00 +3°C° 0.1 mm 2 mps 680 mmHg 56%
    10:00 +3°C° 0.1 mm 2 mps 680 mmHg 56%
    11:00 +4°C° 0.1 mm 2 mps 681 mmHg 55%
    12:00 +5°C° 0.2 mm 1 mps 680 mmHg 56%
    13:00 +6°C° 0.2 mm 1 mps 680 mmHg 56%
    14:00 +6°C° 0.2 mm 1 mps 680 mmHg 56%
    15:00 +6°C° 0.2 mm 1 mps 681 mmHg 57%
    16:00 +5°C° 0.2 mm 1 mps 681 mmHg 58%
    17:00 +5°C° 0.2 mm 1 mps 681 mmHg 59%
    18:00 +5°C° 0.4 mm 1 mps 682 mmHg 60%
    19:00 +5°C° 0.4 mm 1 mps 682 mmHg 62%
    20:00 +4°C° 0.4 mm 1 mps 682 mmHg 64%
    21:00 +3°C° 0.8 mm 2 mps 682 mmHg 66%
    22:00 +3°C° 0.8 mm 2 mps 683 mmHg 69%
    23:00 +3°C° 0.8 mm 2 mps 683 mmHg 72%

    20 October, Saturday

    Time Temperature Precipitation Wind Pressure Humidity
    00:00 +3°C° 1.1 mm 2 mps 683 mmHg 75%
    01:00 +2°C° 1.1 mm 2 mps 683 mmHg 78%
    02:00 +3°C° 1.1 mm 1 mps 683 mmHg 82%
    03:00 +3°C° 0.8 mm 1 mps 684 mmHg 84%
    04:00 +3°C° 0.8 mm 1 mps 684 mmHg 86%
    05:00 +2°C° 0.8 mm 1 mps 684 mmHg 88%
    06:00 +2°C° 0.3 mm 1 mps 684 mmHg 88%
    07:00 +2°C° 0.3 mm 2 mps 685 mmHg 88%
    08:00 +2°C° 0.3 mm 2 mps 685 mmHg 88%
    09:00 +2°C° 0.2 mm 2 mps 685 mmHg 87%
    10:00 +3°C° 0.2 mm 2 mps 685 mmHg 86%
    11:00 +3°C° 0.2 mm 2 mps 685 mmHg 85%
    12:00 +4°C° 0.1 mm 2 mps 685 mmHg 83%
    13:00 +4°C° 0.1 mm 2 mps 685 mmHg 81%
    14:00 +5°C° 0.1 mm 2 mps 685 mmHg 79%
    15:00 +4°C° 0 mm 2 mps 685 mmHg 79%
    16:00 +4°C° 0 mm 2 mps 685 mmHg 78%
    17:00 +4°C° 0 mm 2 mps 686 mmHg 78%
    18:00 +3°C° 0 mm 2 mps 686 mmHg 78%
    19:00 +3°C° 0 mm 2 mps 686 mmHg 78%
    20:00 +3°C° 0 mm 2 mps 687 mmHg 79%
    21:00 +2°C° 0 mm 3 mps 686 mmHg 79%
    22:00 +2°C° 0 mm 3 mps 686 mmHg 79%
    23:00 +2°C° 0 mm 3 mps 686 mmHg 80%

    21 October, Sunday

    Time Temperature Precipitation Wind Pressure Humidity
    00:00 +1°C° 0 mm 3 mps 686 mmHg 80%
    01:00 +1°C° 0 mm 3 mps 686 mmHg 80%
    02:00 +1°C° 0 mm 3 mps 685 mmHg 80%
    03:00 +1°C° 0 mm 3 mps 685 mmHg 79%
    04:00 +1°C° 0 mm 3 mps 686 mmHg 78%
    05:00 0°C° 0 mm 3 mps 686 mmHg 77%
    06:00 +1°C° 0 mm 3 mps 686 mmHg 75%
    07:00 +1°C° 0 mm 3 mps 686 mmHg 72%
    08:00 +2°C° 0 mm 3 mps 686 mmHg 70%
    09:00 +3°C° 0 mm 3 mps 686 mmHg 69%
    10:00 +4°C° 0 mm 3 mps 685 mmHg 68%
    11:00 +5°C° 0 mm 3 mps 685 mmHg 66%
    12:00 +7°C° 0 mm 3 mps 685 mmHg 65%
    13:00 +7°C° 0 mm 3 mps 685 mmHg 63%
    14:00 +8°C° 0 mm 3 mps 685 mmHg 61%
    15:00 +7°C° 0 mm 3 mps 685 mmHg 61%
    16:00 +5°C° 0 mm 3 mps 684 mmHg 61%
    17:00 +5°C° 0 mm 3 mps 684 mmHg 60%
    18:00 +4°C° 0 mm 3 mps 685 mmHg 60%
    19:00 +4°C° 0 mm 3 mps 685 mmHg 60%
    20:00 +3°C° 0 mm 3 mps 685 mmHg 60%
    21:00 +3°C° 0 mm 3 mps 685 mmHg 60%
    22:00 +3°C° 0 mm 3 mps 684 mmHg 59%
    23:00 +3°C° 0 mm 3 mps 684 mmHg 59%
    Show more